Regional Weather Roundup
Issued by NWS

Home | Current Version | Previous Version | Graphics & Text | Print | Product List | Glossary On
Versions: 1 2 3 4 5 6 7 8 9 10 11 12 13 14 15 16 17 18 19 20 21 22 23 24 25 26 27 28 29 30 31 32 33 34 35 36 37 38 39 40 41 42 43 44 45 46 47 48 49 50
300
ASUS43 KMPX 220301
RWRMN
WEATHER ROUNDUP FOR MINNESOTA
NATIONAL WEATHER SERVICE TWIN CITIES/CHANHASSEN MN
900 PM CST WED FEB 21 2018


NOTE: "FAIR" INDICATES FEW OR NO CLOUDS BELOW 12,000 FEET WITH NO
SIGNIFICANT WEATHER AND/OR OBSTRUCTIONS TO VISIBILITY. N/A MEANS
CURRENT SKY AND/OR WEATHER CONDITIONS ARE NOT AVAILABLE.

MNZ060>063-068>070-220400-
   Twin Cities Metro

CITY           SKY/WX    TMP DP  RH WIND       PRES   REMARKS
TWIN CITIES    MOCLDY    16   5  62 S5        30.64F WCI   9
ST PAUL        FAIR      13   5  70 S3        30.66F
CRYSTAL        FAIR       9   1  70 CALM      30.63S
LAKEVILLE        N/A      7   3  85 CALM      30.63S
EDEN PRAIRIE   FAIR      13   3  64 CALM      30.62F
SOUTH ST PAUL  FAIR      13   6  73 CALM      30.65S
LAKE ELMO      FAIR      10   5  79 CALM      30.65S
$$
MNZ001>005-007-008-013>017-022>024-027-028-220400-
   Northwest Minnesota

CITY           SKY/WX    TMP DP  RH WIND       PRES   REMARKS
BEMIDJI        FAIR       7  -4  58 S5        30.51R WCI  -1
HALLOCK        FAIR      -4  -9  77 S9        30.51R WCI -20
ROSEAU         FAIR       3  -2  78 SW9       30.50R WCI -11
WARROAD        FAIR       3  -4  72 SW7       30.49S WCI  -9
THIEF RVR FALL FAIR       0  -4  83 S10       30.52F WCI -16
CROOKSTON      FAIR       0  -8  71 S7        30.55S WCI -13
FOSSTON        FAIR      -4  -9  77 S6        30.53R WCI -16
DETROIT LAKES  FAIR       5  -4  66 S3        30.53S
MOORHEAD       FAIR       0  -6  78 S7        30.55F WCI -13
PARK RAPIDS    FAIR       2  -6  69 CALM      30.52R
MAHNOMEN       FAIR       0  -8  70 S7        30.52S WCI -13
$$
MNZ006-009>011-018-025>026-220400-
   North Central Minnesota

CITY           SKY/WX    TMP DP  RH WIND       PRES   REMARKS
BAUDETTE       FAIR       0  -7  72 S6        30.49R WCI -12
FLAG ISLAND    FAIR      -4  -9  77 S3        30.48R
INTL FALLS     FAIR       8  -4  58 W9        30.50R WCI  -5
WASKISH        FAIR      -4  -9  77 CALM      30.51R
BIG FORK       FAIR       5  -6  61 S6        30.51R WCI  -6
LONGVILLE      FAIR      -4  -8  84 CALM      30.54R
GRAND RAPIDS   FAIR       2  -5  72 S6        30.55R WCI  -9
CRANE LAKE     FAIR      -6  -8  92 CALM      30.54R
ORR            FAIR      10  -2  56 SW3       30.48R
COOK             N/A     12   1  62 S3        30.51S
WALKER         FAIR       8  -6  54 SW8       30.52S WCI  -5
$$
MNZ012-019>021-037-220400-
   Northeast Minnesota

CITY           SKY/WX    TMP DP  RH WIND       PRES   REMARKS
DULUTH         FAIR      12   0  58 SW7       30.55R WCI   1
ELY            FAIR      10   1  67 SW6       30.50S WCI   1
HIBBING        FAIR      -3  -6  87 CALM      30.52R
DULUTH HARBOR  FAIR      12   1  62 SW7       30.63S WCI   2
TWO HARBORS    FAIR      12   3  67 SW3       30.56R
GRAND MARAIS     N/A     16   3  56 W5        30.59R WCI   9
G MARAIS ARPRT FAIR       7   0  72 SW3       30.50R
$$
MNZ029>031-032-039>041-046>048-054>057-064-220400-
   West Central Minnesota

CITY           SKY/WX    TMP DP  RH WIND       PRES   REMARKS
FERGUS FALLS   FAIR       3  -2  78 S7        30.57R WCI  -9
WHEATON        FAIR      -2  -8  78 SE6       30.58S WCI -14
MORRIS         FAIR       1  -4  78 SE6       30.56R WCI -10
ALEXANDRIA     FAIR       4  -3  73 S7        30.55S WCI  -8
ELBOW LAKE     FAIR       5  -2  73 SE5       30.56R WCI  -4
WADENA         FAIR       1  -6  71 S3        30.54S
GLENWOOD       FAIR       5   0  78 SE6       30.57R WCI  -6
APPLETON       FAIR      10   0  61 SE7       30.59R WCI   0
BENSON         FAIR       7   0  72 S6        30.59S WCI  -3
ORTONVILLE     FAIR       3  -4  72 SE6       30.56R WCI  -8
MADISON        MOCLDY     9   3  78 S10       30.59R WCI  -6
WILLMAR        FAIR       3  -2  78 SE5       30.62R WCI  -6
$$
MNZ033>034-036-042>043-049>051-058-059-220400-
   Central Minnesota

CITY           SKY/WX    TMP DP  RH WIND       PRES   REMARKS
ST CLOUD       FAIR       3  -3  76 CALM      30.60F
SAUK CENTRE    FAIR       1  -5  78 SE3       30.58R
PAYNESVILLE    FAIR       5  -1  75 S3        30.60R
AITKIN         FAIR       9  -2  61 SW3       30.55S
PINE RIVER     FAIR      -2  -9  71 CALM      30.56F
BRAINERD       FAIR       5  -6  60 SW6       30.57R WCI  -6
STAPLES        FAIR       3  -4  72 S3        30.55S
LONG PRAIRIE   FAIR       0  -6  78 SE3       30.57R
LITTLE FALLS   FAIR       5  -8  56 CALM      30.60R
LITCHFIELD     FAIR       9   1  72 CALM      30.62R
BUFFALO        FAIR      10   2  70 CALM      30.63S
MAPLE LAKE     FAIR       7   1  78 S3        30.62S
HUTCHINSON     FAIR       8   3  80 CALM      30.63R
$$
MNZ037-044-045-052-053-220400-
   East Central Minnesota

CITY           SKY/WX    TMP DP  RH WIND       PRES   REMARKS
PRINCETON      FAIR       9   0  66 CALM      30.61S
CAMBRIDGE        N/A      9  -2  61 CALM      30.63S
RUSH CITY      FAIR       6  -2  68 S3        30.63S
MOOSE LAKE     FAIR       9   0  66 CALM      30.58S
HINCKLEY       FAIR       5   0  78 SW5       30.61S WCI  -4
CLOQUET        FAIR      10  -2  56 SW3       30.56S
MCGREGOR       FAIR      10   0  61 S3        30.57S
$$
MNZ071>073-080-081-089-090-097-098-220400-
   Southwest Minnesota

CITY           SKY/WX    TMP DP  RH WIND       PRES   REMARKS
MONTEVIDEO     FAIR      10   1  67 SW6       30.60S WCI   1
GRANITE FALLS  MOCLDY     4  -2  75 S7        30.62S WCI  -8
CANBY          FAIR      10   2  71 S6        30.59R WCI   0
MARSHALL       CLOUDY     6   0  76 S3        30.59F
REDWOOD FALLS  MOCLDY     9   2  73 S5        30.61S WCI   1
OLIVIA         FAIR       9   1  72 S5        30.61R WCI   0
PIPESTONE      MOCLDY     9   1  72 SE6       30.53F WCI  -1
WORTHINGTON    CLOUDY    13   7  77 SE5       30.56F WCI   5
JACKSON        CLOUDY    14   7  73 SE3       30.58S
TRACY          CLOUDY    11   4  74 S3        30.57S
SLAYTON        MOCLDY     6   2  82 CALM      30.56S
$$
MNZ065>067-074>077-082>085-091>093-220400-
   South Central Minnesota

CITY           SKY/WX    TMP DP  RH WIND       PRES   REMARKS
MANKATO        FAIR      12   5  73 S5        30.64R WCI   4
NEW ULM        FAIR      12   1  62 SE3       30.63R
ST JAMES       MOCLDY    10   7  85 SE3       30.63S
FAIRMONT       CLOUDY    12   6  77 E3        30.62S
GLENCOE        FAIR      12   4  71 CALM      30.62S
FARIBAULT      FAIR       7   3  85 CALM      30.63S
OWATONNA       FAIR      10   7  85 CALM      30.62R
WASECA         FAIR      12   9  85 CALM      30.64R
ALBERT LEA     FAIR      16  10  79 CALM      30.61S
$$
MNZ078>079-086>088-094>096-220400-
   Southeast Minnesota

CITY           SKY/WX    TMP DP  RH WIND       PRES   REMARKS
ROCHESTER      MOCLDY    16   9  74 CALM      30.61S
RED WING       FAIR       9   1  72 CALM      30.66R
STANTON        FAIR       8   4  83 CALM      30.63S
DODGE CENTER   FAIR      12   9  85 CALM      30.61S
WINONA         FAIR      18  12  79 CALM      30.66R
AUSTIN         FAIR      16  12  86 CALM      30.61S
PRESTON        FAIR      17  11  78 CALM      30.62R
$$
ABBREVIATIONS USED IN REMARKS
   TC - TEMPERATURES IN CELSIUS
  WCI - WIND CHILL INDEX
   HX - HEAT INDEX
  VSB - VISIBILITY
$$




USA.gov is the U.S. government's official web portal to all federal, state and local government web resources and services.